Content
SEND FEEDBACK

Daily
Averages
Monthly
Summary
Canada

ST. JOHN'S, NEWFOUNDLAND


Home > North America > Canada > Newfoundland
Elevation: 459 feet     Latitude: 47 37N     Longitude: 052 44W

WEATHER
 
SELECT A DAY
Number of Records: 205,974;   Date Range: 1/1/95 - 9/29/14
 
SHARE

PRINT THIS DATA

[ ← Previous Day ]
WEATHER ALMANAC - FEBRUARY 6, 2013
[ Next Day → ]
[ °C ]   °F
Weather ElementAverageHighLow
Temperature21.5 °F24 °F (8:30 pm)17.6 °F (6:30 am)
Dewpoint18.1 °F23 °F (3:30 pm)12.2 °F (4:30 am)
Humidity86.6 %100 % (1:30 pm)68 % (4:30 am)
Barometer30.01 in30.15 in (8:30 am)29.83 in (7:30 pm)
Wind Speed11 mph20.7 mph (1:30 am)
Wind Gust25.3 mph (2:11 am)
Weather ElementAverage
Visibility10.7 mi
Wind DirectionSE (139.7 °)

Weather ElementTotal
Precipitation---
Heating Degree Days44.2 (Base 65)
Averaged from 32 records on February 6, 2013
WEATHER CONDITIONS BREAKOUT
WIND DIRECTION BREAKOUT
WEATHER BY HOUR - FEBRUARY 6, 2013
[ °C ]   °F
Local TimeTemperatureDewpointHumidityBarometerVisibilityWind DirectionWind SpeedGust SpeedPrecipitationEventsConditions
1:30 AM19.4 °F15.8 °F86 %30.03 in10.0 miWSW (250°)20.7 mphSnowLight Snow Showers
2:11 AM21.2 °F15.8 °F80 %30.04 in15.0 miWSW (250°)18.4 mph25.3 mphOvercast
2:30 AM20.0 °F14.0 °F69 %30.05 in15.0 miWSW (250°)15.0 mphSnowLight Snow Showers
2:30 AM19.4 °F14.0 °F80 %30.04 in15.0 miWSW (250°)13.8 mph23.0 mphMostly Cloudy
3:30 AM21.2 °F14.0 °F74 %30.08 in15.0 miWest (260°)13.8 mph19.6 mphMostly Cloudy
4:30 AM21.2 °F12.2 °F68 %30.11 in15.0 miWest (260°)13.8 mph23.0 mphMostly Cloudy
5:30 AM19.4 °F14.0 °F80 %30.12 in15.0 miSSW (200°)6.9 mphSnowLight Snow Showers
6:06 AM19.4 °F14.0 °F80 %30.13 in15.0 miSW (220°)9.2 mphOvercast
6:30 AM17.6 °F14.0 °F86 %30.14 in15.0 miSouth (170°)5.8 mphOvercast
7:30 AM17.6 °F14.0 °F86 %30.14 in15.0 miSouth (170°)3.5 mphOvercast
8:30 AM19.0 °F14.0 °F72 %30.15 in15.0 miSouth (180°)2.3 mphPartly Cloudy
8:30 AM19.4 °F14.0 °F80 %30.15 in15.0 miSSE (160°)4.6 mphOvercast
9:30 AM21.2 °F14.0 °F74 %30.15 in15.0 miSouth (170°)3.5 mphOvercast
10:30 AM23.0 °F14.0 °F68 %30.13 in50.0 miCalmOvercast
11:30 AM23.0 °F15.8 °F74 %30.10 in15.0 miENE (70°)4.6 mphOvercast
11:40 AM23.0 °F15.8 °F74 %30.09 in15.0 miENE (60°)5.8 mphSnowLight Snow
12:00 PM21.2 °F17.6 °F86 %30.08 in1.2 miENE (60°)5.8 mphSnowLight Snow
12:30 PM21.2 °F19.4 °F93 %30.05 in0.5 miENE (60°)8.1 mphSnowSnow
1:30 PM21.2 °F21.2 °F100 %30.01 in0.5 miENE (60°)9.2 mphSnowSnow
2:30 PM23.0 °F21.0 °F91 %29.96 in0.0 miENE (60°)12.7 mphSnowLight Snow
2:30 PM23.0 °F21.2 °F93 %29.96 in0.5 miNE (50°)13.8 mphSnowSnow
3:30 PM23.0 °F23.0 °F100 %29.92 in0.5 miNE (50°)16.1 mphSnowSnow
4:30 PM23.0 °F23.0 °F100 %29.89 in3.0 miNE (40°)17.3 mph24.2 mphSnowLight Snow
5:30 PM23.0 °F23.0 °F100 %29.86 in3.0 miNNE (30°)15.0 mph24.2 mphSnowLight Snow
6:30 PM23.0 °F23.0 °F100 %29.84 in3.0 miNNE (20°)16.1 mph23.0 mphSnowLight Snow
6:54 PM23.0 °F23.0 °F100 %29.85 in3.0 miNNE (20°)13.8 mphSnowLight Snow
7:30 PM23.0 °F23.0 °F100 %29.83 in12.0 miNNE (20°)13.8 mph19.6 mphSnowLight Snow
8:30 PM24.0 °F22.0 °F90 %29.85 in5.0 miNorth12.7 mphSnowLight Snow
8:30 PM23.0 °F23.0 °F100 %29.85 in5.0 miNorth (360°)12.7 mphSnowLight Snow
9:30 PM23.0 °F23.0 °F100 %29.85 in4.0 miNorth (350°)15.0 mphSnowLight Snow
10:30 PM23.0 °F21.2 °F93 %29.86 in15.0 miNorth (10°)15.0 mphSnowLight Snow
11:30 PM23.0 °F21.2 °F93 %29.86 in15.0 miNorth (360°)12.7 mphSnowLight Snow
Hourly data recorded from CYYT, located miles away from St. John's, Newfoundland







STORIES FROM OUR PARTNERS